• In Uzbekistan
  • List of Countries
  • For 7 days
  • Water Temperature
  • Satellite Maps
  • Weather Map
  • Weather Widgets
  • user-avatar
    Login

    Hourly Weather Lokiec

    Today, 18 February, Monday

    Time Temperature Precipitation Wind Pressure Humidity
    00:00 0°C° 0 mm 1 mps 709 mmHg 91%
    01:00 0°C° 0 mm 1 mps 709 mmHg 90%
    02:00 +1°C° 0 mm 1 mps 709 mmHg 89%
    03:00 +1°C° 0 mm 1 mps 709 mmHg 89%
    04:00 +1°C° 0 mm 1 mps 709 mmHg 89%
    05:00 +1°C° 0 mm 1 mps 708 mmHg 88%
    06:00 +1°C° 0 mm 1 mps 708 mmHg 88%
    07:00 +1°C° 0 mm 1 mps 708 mmHg 88%
    08:00 +1°C° 0 mm 1 mps 708 mmHg 88%
    09:00 +2°C° 0 mm 1 mps 709 mmHg 84%
    10:00 +4°C° 0 mm 1 mps 709 mmHg 79%
    11:00 +6°C° 0 mm 1 mps 709 mmHg 74%
    12:00 +7°C° 0 mm 1 mps 709 mmHg 73%
    13:00 +8°C° 0 mm 1 mps 709 mmHg 71%
    14:00 +8°C° 0 mm 1 mps 709 mmHg 70%
    15:00 +7°C° 0 mm 1 mps 708 mmHg 76%
    16:00 +6°C° 0 mm 1 mps 708 mmHg 82%
    17:00 +5°C° 0 mm 1 mps 707 mmHg 88%
    18:00 +4°C° 0 mm 1 mps 707 mmHg 89%
    19:00 +3°C° 0 mm 1 mps 707 mmHg 91%
    20:00 +1°C° 0 mm 1 mps 707 mmHg 92%
    21:00 +1°C° 0 mm 1 mps 707 mmHg 92%
    22:00 +1°C° 0 mm 1 mps 707 mmHg 91%
    23:00 +1°C° 0 mm 1 mps 707 mmHg 90%

    Tomorrow, 19 February, Tuesday

    Time Temperature Precipitation Wind Pressure Humidity
    00:00 +1°C° 0 mm 1 mps 707 mmHg 90%
    01:00 +1°C° 0 mm 1 mps 707 mmHg 90%
    02:00 -2°C° 0 mm 2 mps 707 mmHg 89%
    03:00 -2°C° 0 mm 2 mps 706 mmHg 89%
    04:00 -2°C° 0 mm 2 mps 706 mmHg 90%
    05:00 -2°C° 0 mm 2 mps 706 mmHg 90%
    06:00 -2°C° 0 mm 2 mps 706 mmHg 90%
    07:00 -1°C° 0 mm 2 mps 706 mmHg 90%
    08:00 -1°C° 0 mm 2 mps 706 mmHg 90%
    09:00 +1°C° 0 mm 2 mps 706 mmHg 84%
    10:00 +2°C° 0 mm 3 mps 706 mmHg 78%
    11:00 +4°C° 0 mm 3 mps 706 mmHg 72%
    12:00 +4°C° 0 mm 3 mps 706 mmHg 71%
    13:00 +5°C° 0 mm 3 mps 705 mmHg 69%
    14:00 +5°C° 0 mm 4 mps 705 mmHg 68%
    15:00 +5°C° 0 mm 3 mps 705 mmHg 72%
    16:00 +4°C° 0 mm 3 mps 704 mmHg 76%
    17:00 +3°C° 0 mm 3 mps 704 mmHg 80%
    18:00 +2°C° 0 mm 3 mps 704 mmHg 82%
    19:00 +1°C° 0 mm 3 mps 704 mmHg 84%
    20:00 0°C° 0 mm 3 mps 704 mmHg 86%
    21:00 0°C° 0 mm 3 mps 704 mmHg 86%
    22:00 0°C° 0 mm 3 mps 704 mmHg 86%
    23:00 0°C° 0 mm 3 mps 704 mmHg 87%

    Day after tomorrow, 20 February, Wednesday

    Time Temperature Precipitation Wind Pressure Humidity
    00:00 +1°C° 0 mm 2 mps 704 mmHg 88%
    01:00 -1°C° 0 mm 2 mps 703 mmHg 89%
    02:00 -1°C° 0 mm 2 mps 703 mmHg 91%
    03:00 -1°C° 0 mm 2 mps 703 mmHg 91%
    04:00 -1°C° 0 mm 2 mps 703 mmHg 92%
    05:00 -1°C° 0 mm 2 mps 703 mmHg 92%
    06:00 +1°C° 0.2 mm 1 mps 703 mmHg 92%
    07:00 +2°C° 0.2 mm 1 mps 704 mmHg 92%
    08:00 +2°C° 0.2 mm 1 mps 704 mmHg 92%
    09:00 +3°C° 0.2 mm 1 mps 705 mmHg 90%
    10:00 +2°C° 0.2 mm 2 mps 705 mmHg 88%
    11:00 +3°C° 0.2 mm 2 mps 705 mmHg 85%
    12:00 +3°C° 0.1 mm 2 mps 705 mmHg 83%
    13:00 +3°C° 0.1 mm 2 mps 705 mmHg 81%
    14:00 +4°C° 0.1 mm 2 mps 705 mmHg 79%
    15:00 +4°C° 0.1 mm 2 mps 705 mmHg 79%
    16:00 +3°C° 0.1 mm 2 mps 705 mmHg 79%
    17:00 +3°C° 0.1 mm 2 mps 705 mmHg 78%
    18:00 +3°C° 0 mm 1 mps 706 mmHg 82%
    19:00 +2°C° 0 mm 1 mps 706 mmHg 85%
    20:00 +1°C° 0 mm 1 mps 706 mmHg 88%
    21:00 +1°C° 0.1 mm 1 mps 707 mmHg 89%
    22:00 +2°C° 0.1 mm 1 mps 707 mmHg 89%
    23:00 +2°C° 0.1 mm 1 mps 707 mmHg 90%

    21 February, Thursday

    Time Temperature Precipitation Wind Pressure Humidity
    00:00 +1°C° 0 mm 1 mps 707 mmHg 91%
    01:00 +1°C° 0 mm 1 mps 707 mmHg 91%
    02:00 +1°C° 0 mm 1 mps 707 mmHg 92%
    03:00 +1°C° 0 mm 1 mps 707 mmHg 92%
    04:00 +1°C° 0 mm 1 mps 707 mmHg 92%
    05:00 +1°C° 0 mm 1 mps 707 mmHg 93%
    06:00 +1°C° 0 mm 1 mps 707 mmHg 92%
    07:00 +1°C° 0 mm 1 mps 708 mmHg 92%
    08:00 +1°C° 0 mm 1 mps 708 mmHg 92%
    09:00 +1°C° 0 mm 2 mps 708 mmHg 88%
    10:00 +2°C° 0 mm 2 mps 708 mmHg 84%
    11:00 +2°C° 0 mm 3 mps 708 mmHg 79%
    12:00 +3°C° 0 mm 3 mps 708 mmHg 79%
    13:00 +3°C° 0 mm 3 mps 708 mmHg 78%
    14:00 +3°C° 0 mm 3 mps 708 mmHg 77%
    15:00 +3°C° 0 mm 3 mps 708 mmHg 80%
    16:00 +2°C° 0 mm 3 mps 708 mmHg 83%
    17:00 +3°C° 0 mm 2 mps 707 mmHg 86%
    18:00 +2°C° 0.1 mm 2 mps 708 mmHg 88%
    19:00 +2°C° 0.1 mm 2 mps 708 mmHg 91%
    20:00 +2°C° 0.1 mm 1 mps 708 mmHg 93%
    21:00 +2°C° 0.1 mm 1 mps 708 mmHg 93%
    22:00 +2°C° 0.1 mm 1 mps 708 mmHg 94%
    23:00 +2°C° 0.1 mm 1 mps 708 mmHg 94%

    22 February, Friday

    Time Temperature Precipitation Wind Pressure Humidity
    00:00 +2°C° 0 mm 1 mps 709 mmHg 94%
    01:00 +2°C° 0 mm 1 mps 709 mmHg 94%
    02:00 +2°C° 0 mm 1 mps 709 mmHg 95%
    03:00 +2°C° 0.2 mm 1 mps 709 mmHg 95%
    04:00 +2°C° 0.2 mm 1 mps 709 mmHg 96%
    05:00 +2°C° 0.2 mm 1 mps 709 mmHg 96%
    06:00 +3°C° 0.2 mm 1 mps 710 mmHg 97%
    07:00 +3°C° 0.2 mm 1 mps 710 mmHg 97%
    08:00 +3°C° 0.2 mm 1 mps 710 mmHg 97%
    09:00 +2°C° 0.2 mm 2 mps 711 mmHg 97%
    10:00 +2°C° 0.2 mm 2 mps 711 mmHg 96%
    11:00 +2°C° 0.2 mm 3 mps 712 mmHg 96%
    12:00 +1°C° 0.1 mm 3 mps 712 mmHg 94%
    13:00 0°C° 0.1 mm 3 mps 712 mmHg 92%
    14:00 +1°C° 0.1 mm 2 mps 712 mmHg 90%
    15:00 0°C° 0 mm 3 mps 713 mmHg 85%
    16:00 -1°C° 0 mm 3 mps 713 mmHg 80%
    17:00 -1°C° 0 mm 3 mps 713 mmHg 75%
    18:00 -2°C° 0 mm 3 mps 714 mmHg 75%
    19:00 -4°C° 0 mm 4 mps 715 mmHg 75%
    20:00 -5°C° 0 mm 4 mps 715 mmHg 75%
    21:00 -7°C° 0 mm 4 mps 716 mmHg 75%
    22:00 -6°C° 0 mm 3 mps 716 mmHg 75%
    23:00 -7°C° 0 mm 3 mps 717 mmHg 74%

    23 February, Saturday

    Time Temperature Precipitation Wind Pressure Humidity
    00:00 -7°C° 0 mm 3 mps 717 mmHg 74%
    01:00 -6°C° 0 mm 2 mps 717 mmHg 73%
    02:00 -7°C° 0 mm 2 mps 717 mmHg 72%
    03:00 -7°C° 0 mm 2 mps 717 mmHg 71%
    04:00 -7°C° 0 mm 2 mps 717 mmHg 69%
    05:00 -7°C° 0 mm 2 mps 718 mmHg 68%
    06:00 -7°C° 0 mm 2 mps 718 mmHg 67%
    07:00 -7°C° 0 mm 2 mps 718 mmHg 66%
    08:00 -7°C° 0 mm 2 mps 718 mmHg 65%
    09:00 -6°C° 0 mm 2 mps 719 mmHg 58%
    10:00 -5°C° 0 mm 2 mps 719 mmHg 51%
    11:00 -4°C° 0 mm 2 mps 719 mmHg 43%
    12:00 -3°C° 0 mm 2 mps 719 mmHg 41%
    13:00 -2°C° 0 mm 2 mps 719 mmHg 39%
    14:00 -2°C° 0 mm 2 mps 719 mmHg 37%
    15:00 0°C° 0 mm 1 mps 718 mmHg 39%
    16:00 0°C° 0 mm 1 mps 718 mmHg 40%
    17:00 0°C° 0 mm 1 mps 718 mmHg 42%
    18:00 -1°C° 0 mm 1 mps 717 mmHg 46%
    19:00 -2°C° 0 mm 1 mps 717 mmHg 50%
    20:00 -2°C° 0 mm 1 mps 717 mmHg 54%
    21:00 -3°C° 0 mm 0 mps 717 mmHg 54%
    22:00 -3°C° 0 mm 0 mps 717 mmHg 54%
    23:00 -2°C° 0 mm 0 mps 717 mmHg 54%
    Show more